STARLINK-32942, 63120

Orbit data source: Space-Track

STARLINK-32942, 63120 is a payload satellite owned by SpaceX/Seattle (US) in LEO that was launched on Thu, 27 Feb 2025 UTC via an FALCON 9 launch vehicle from the Air Force Eastern Test Range (AFETR). Payload-class satellites include a variety of spacecraft equipped with specific instruments for various scientific and technological missions. These include communications satellites like Starlink; space stations such as the ISS; scientific satellites like the Hubble; Earth observation satellites from companies like Planet Labs, Umbra, and HawkEye 360; GPS; miniature CubeSats for education and research; and military/defense satellites.

Loading next visibility...
Identifier
63120, 2025-039S
Orbit
LEO
Country
Flag of USUS
Related business
Manufacturer
SpaceX/Seattle
Mission
Operational Commercial Communications
Bus & Motor
STARLINK V2M, Unknown motor
Mass
730 kg wet, ~700 kg dry
Launch date (UTC)
2025-02-27 (1 year ago)
Launch vehicle
FALCON 9
Launch site
Air Force Eastern Test Range (AFETR)
Object type
Payload
Rocket body
Debris
Shape & HBR
Box + 2 Pan, 17.7 m
Radar Cross Section
33.884 m², Large (>1 m²)

Expand to show TLE details & history
Last TLE update: 6 hours ago

TLE from 6 hours ago
0 STARLINK-32942
1 63120U 25039S   26125.15707544  .00040415  00000-0  14693-2 0  9999
2 63120  43.0004  53.8016 0000900 289.5870  70.4885 15.27599051 66701
Epoch: 2026-05-05T03:46Z
TLE epoch observation values (Epoch: 2026-05-05T03:46:11.318Z)
Latitude
0.00004°
Longitude
134.21853°
Altitude
482.561 km
Speed
7.626 km/s
True Right ascension
03h 35m 12s
True Declination
0° 00' 00"
Sunlit
Object was in daylight at epoch
Visualization orbit readout
Latitude
Unknown
Longitude
Unknown
Altitude
Unknown
Speed
Unknown
Apparent Right ascension
Unknown
Apparent Declination
Unknown
Sunlit
N/A
Visualization observer readout
Local Sidereal Time
17:53:10
Azimuth
Unknown
Elevation
Unknown
Doppler factor
Unknown
Orbital elements
Apogee altitude
485.555 km
Perigee altitude
484.319 km
Semi-major axis
6,863.074 km
Eccentricity
0.00009
Inclination
43.0004°
RAAN
53.8016°
Arg. of periapsis
289.587°
True anomaly
70.49822°
Mean anomaly
70.4885°
Eccentric anomaly
70.49336°
Mean motion
3.81738 °/min
Orbital period
94.31 mins
BSTAR
0.0014693
Loading maneuver chart data...
Computing Atmospheric mass density...
Loading historical data...
Loading historical data...
Loading historical data...
Loading historical data...
Loading historical data...
Loading historical data...
Loading historical data...

Documentation

Showing up to 5 results
|